Cosmos 1933 Rocket - Orbit

View from above orbital plane
View from above orbital plane
View from above satellite
View from above satellite

Ground track
Ground track

The orbit data is extracted from the following two-line orbital elements,

1 18959U 88020B   13142.36658976  .00000327  00000-0  37706-4 0  9406
2 18959 082.5390 219.3897 0016652 003.6624 041.4909 14.82485310360227
Epoch (UTC): 22 May 2013 08:47:53
Eccentricity: 0.0016652
inclination: 82.5390°
perigee height: 610 km
apogee height: 633 km
right ascension of ascending node: 219.3897°
argument of perigee: 3.6624°
revolutions per day: 14.82485310
mean anomaly at epoch: 41.4909°
orbit number at epoch: 36022

The dashed part of the orbit path shows where the satellite is in the earth's shadow,  

Developed and maintained by Chris Peat, Heavens-Above GmbH. Please read the updated FAQ before sending e-mail. Imprint. DLR